| time (UTC) | temp F | wind direction | speed MPH | gust MPH | rain 1hr in | rain 24hr in | rain mn in | humidity % | barometer mb |
| 20260903175431 | 59 | 310 | 1.0 | 3.0 | 0.00 | 0.00 | 0.00 | 55 | 970.8 |
| 20260903173631 | 60 | 316 | 3.0 | 3.0 | 0.00 | 0.00 | 0.00 | 55 | 970.9 |
| 20260903172731 | 60 | 311 | 1.0 | 3.0 | 0.00 | 0.00 | 0.00 | 54 | 970.9 |
| 20260903171831 | 61 | 353 | 1.0 | 5.0 | 0.00 | 0.00 | 0.00 | 53 | 970.9 |
| 20260903170931 | 62 | 24 | 4.0 | 5.0 | 0.00 | 0.00 | 0.00 | 52 | 971.0 |
| 20260903170031 | 64 | 7 | 4.0 | 6.0 | 0.00 | 0.00 | 0.00 | 50 | 971.0 |
| 20260903165131 | 64 | 338 | 7.0 | 9.0 | 0.00 | 0.00 | 0.00 | 49 | 970.8 |
| 20260903164231 | 65 | 298 | 6.0 | 8.0 | 0.00 | 0.00 | 0.00 | 49 | 970.9 |
| 20260903163331 | 65 | 301 | 4.0 | 6.0 | 0.00 | 0.00 | 0.00 | 48 | 970.9 |
| 20260903162431 | 65 | 288 | 6.0 | 8.0 | 0.00 | 0.00 | 0.00 | 48 | 970.9 |
| 20260903161531 | 65 | 298 | 4.0 | 7.0 | 0.00 | 0.00 | 0.00 | 48 | 970.9 |
| 20260903160631 | 65 | 25 | 6.0 | 8.0 | 0.00 | 0.00 | 0.00 | 49 | 970.8 |
| 20260903155731 | 66 | 278 | 5.0 | 8.0 | 0.00 | 0.00 | 0.00 | 49 | 971.0 |
| 20260903154831 | 67 | 234 | 6.0 | 8.0 | 0.00 | 0.00 | 0.00 | 49 | 970.9 |
| 20260903153031 | 66 | 273 | 5.0 | 8.0 | 0.00 | 0.00 | 0.00 | 48 | 971.0 |
| 20260903152131 | 65 | 287 | 6.0 | 10.0 | 0.00 | 0.00 | 0.00 | 48 | 971.1 |
| 20260903151231 | 65 | 275 | 10.0 | 11.0 | 0.00 | 0.00 | 0.00 | 48 | 971.2 |
| 20260903150331 | 64 | 294 | 8.0 | 11.0 | 0.00 | 0.00 | 0.00 | 49 | 971.2 |
| 20260903145431 | 63 | 307 | 6.0 | 9.0 | 0.00 | 0.00 | 0.00 | 51 | 971.2 |
| 20260903144531 | 63 | 335 | 5.0 | 8.0 | 0.00 | 0.00 | 0.00 | 51 | 971.2 |
| 20260903143631 | 63 | 337 | 6.0 | 8.0 | 0.00 | 0.00 | 0.00 | 51 | 971.1 |
| 20260903142731 | 64 | 313 | 4.0 | 8.0 | 0.00 | 0.00 | 0.00 | 54 | 971.4 |
| 20260903141831 | 65 | 303 | 3.0 | 6.0 | 0.00 | 0.00 | 0.00 | 51 | 971.1 |
| 20260903140031 | 62 | 251 | 4.0 | 8.0 | 0.00 | 0.00 | 0.00 | 56 | 971.3 |
| 20260903135131 | 61 | 327 | 2.0 | 4.0 | 0.00 | 0.00 | 0.00 | 56 | 971.3 |
| 20260903134231 | 62 | 315 | 4.0 | 7.0 | 0.00 | 0.00 | 0.00 | 54 | 971.2 |
| 20260903132432 | 63 | 294 | 8.0 | 12.0 | 0.00 | 0.00 | 0.00 | 52 | 971.4 |
| 20260903131531 | 62 | 335 | 5.0 | 8.0 | 0.00 | 0.00 | 0.00 | 50 | 971.4 |
| 20260903124831 | 63 | 281 | 4.0 | 8.0 | 0.00 | 0.00 | 0.00 | 50 | 971.4 |
| 20260903123932 | 62 | 304 | 5.0 | 8.0 | 0.00 | 0.00 | 0.00 | 51 | 971.3 |
| 20260903123031 | 62 | 318 | 6.0 | 8.0 | 0.00 | 0.00 | 0.00 | 49 | 971.3 |
| 20260903122131 | 62 | 304 | 5.0 | 8.0 | 0.00 | 0.00 | 0.00 | 50 | 971.4 |
| 20260903120331 | 63 | 312 | 5.0 | 7.0 | 0.00 | 0.00 | 0.00 | 48 | 971.4 |
| 20260903115431 | 63 | 300 | 7.0 | 9.0 | 0.00 | 0.00 | 0.00 | 49 | 971.4 |
| 20260903114531 | 63 | 317 | 5.0 | 8.0 | 0.00 | 0.00 | 0.00 | 48 | 971.3 |
| 20260903113631 | 64 | 313 | 7.0 | 13.0 | 0.00 | 0.00 | 0.00 | 48 | 971.4 |
| 20260903112731 | 64 | 311 | 5.0 | 8.0 | 0.00 | 0.00 | 0.00 | 49 | 971.2 |
| 20260903111831 | 62 | 326 | 7.0 | 10.0 | 0.00 | 0.00 | 0.00 | 49 | 971.3 |
| 20260903110932 | 62 | 315 | 6.0 | 10.0 | 0.00 | 0.00 | 0.00 | 50 | 971.3 |
| 20260903105131 | 61 | 314 | 7.0 | 10.0 | 0.00 | 0.00 | 0.00 | 51 | 971.4 |
| 20260903104231 | 61 | 308 | 7.0 | 11.0 | 0.00 | 0.00 | 0.00 | 52 | 971.4 |
| 20260903103331 | 62 | 297 | 8.0 | 12.0 | 0.00 | 0.00 | 0.00 | 49 | 971.3 |
| 20260903102431 | 64 | 323 | 8.0 | 12.0 | 0.00 | 0.00 | 0.00 | 47 | 971.3 |
| 20260903100631 | 63 | 300 | 8.0 | 13.0 | 0.00 | 0.00 | 0.00 | 50 | 971.3 |
| 20260903095731 | 61 | 282 | 9.0 | 13.0 | 0.00 | 0.09 | 0.00 | 50 | 971.5 |
| 20260903094831 | 61 | 297 | 7.0 | 13.0 | 0.00 | 0.11 | 0.00 | 51 | 971.4 |
| 20260903093031 | 61 | 280 | 8.0 | 11.0 | 0.00 | 0.11 | 0.00 | 52 | 971.4 |
| 20260903091231 | 61 | 199 | 5.0 | 9.0 | 0.00 | 0.11 | 0.00 | 54 | 971.3 |
| 20260903085431 | 61 | 279 | 5.0 | 8.0 | 0.00 | 0.11 | 0.00 | 55 | 971.6 |
| 20260903084531 | 61 | 264 | 5.0 | 7.0 | 0.00 | 0.11 | 0.00 | 57 | 971.4 |
| 20260903081831 | 59 | 230 | 8.0 | 9.0 | 0.00 | 0.11 | 0.00 | 60 | 971.4 |
| 20260903080932 | 58 | 222 | 7.0 | 9.0 | 0.00 | 0.11 | 0.00 | 59 | 971.5 |
| 20260903080031 | 58 | 241 | 8.0 | 9.0 | 0.00 | 0.11 | 0.00 | 60 | 971.5 |
| 20260903075131 | 59 | 209 | 6.0 | 9.0 | 0.00 | 0.11 | 0.00 | 59 | 971.6 |
| 20260903074231 | 58 | 230 | 6.0 | 9.0 | 0.00 | 0.11 | 0.00 | 62 | 971.5 |
| 20260903073331 | 58 | 253 | 6.0 | 8.0 | 0.00 | 0.11 | 0.00 | 61 | 971.5 |
| 20260903071531 | 57 | 243 | 5.0 | 7.0 | 0.00 | 0.11 | 0.00 | 60 | 971.5 |
| 20260903070631 | 56 | 197 | 6.0 | 8.0 | 0.00 | 0.11 | 0.00 | 62 | 971.7 |
| 20260903065731 | 56 | 263 | 4.0 | 8.0 | 0.00 | 0.11 | 0.00 | 63 | 971.5 |
| 20260903064831 | 54 | 270 | 5.0 | 6.0 | 0.00 | 0.11 | 0.00 | 65 | 971.6 |
| 20260903062131 | 55 | 265 | 5.0 | 8.0 | 0.00 | 0.11 | 0.00 | 64 | 971.5 |
| 20260903061231 | 55 | 200 | 3.0 | 8.0 | 0.00 | 0.11 | 0.00 | 67 | 971.5 |
| 20260903060331 | 54 | 218 | 4.0 | 8.0 | 0.00 | 0.11 | 0.00 | 69 | 971.5 |
| 20260903055431 | 53 | 242 | 5.0 | 6.0 | 0.00 | 0.11 | 0.00 | 71 | 971.6 |
| 20260903054531 | 52 | 221 | 6.0 | 9.0 | 0.00 | 0.11 | 0.00 | 73 | 971.5 |
| 20260903053631 | 52 | 232 | 6.0 | 8.0 | 0.00 | 0.11 | 0.00 | 74 | 971.5 |
| 20260903052732 | 51 | 221 | 6.0 | 8.0 | 0.00 | 0.11 | 0.00 | 75 | 971.3 |
| 20260903051831 | 51 | 219 | 5.0 | 7.0 | 0.00 | 0.11 | 0.00 | 77 | 971.3 |
| 20260903050931 | 51 | 222 | 5.0 | 7.0 | 0.00 | 0.11 | 0.00 | 78 | 971.2 |
| 20260903050032 | 50 | 204 | 5.0 | 6.0 | 0.00 | 0.11 | 0.00 | 80 | 971.4 |
| 20260903045131 | 48 | 213 | 5.0 | 6.0 | 0.00 | 0.11 | 0.00 | 82 | 971.2 |
| 20260903044232 | 46 | 212 | 4.0 | 4.0 | 0.00 | 0.11 | 0.00 | 84 | 971.3 |
| 20260903043331 | 46 | 221 | 3.0 | 4.0 | 0.00 | 0.11 | 0.00 | 84 | 971.1 |
| 20260903042432 | 46 | 212 | 4.0 | 5.0 | 0.00 | 0.11 | 0.00 | 85 | 971.1 |
| 20260903041531 | 46 | 193 | 4.0 | 5.0 | 0.00 | 0.11 | 0.00 | 86 | 971.1 |
| 20260903040631 | 45 | 190 | 3.0 | 3.0 | 0.00 | 0.11 | 0.00 | 88 | 971.1 |
| 20260903034831 | 45 | 224 | 2.0 | 3.0 | 0.00 | 0.11 | 0.00 | 88 | 971.2 |
| 20260903033932 | 45 | 94 | 2.0 | 3.0 | 0.00 | 0.11 | 0.00 | 88 | 971.1 |
| 20260903033032 | 46 | 206 | 3.0 | 4.0 | 0.00 | 0.11 | 0.00 | 89 | 971.1 |
| 20260903030331 | 47 | 193 | 3.0 | 5.0 | 0.00 | 0.11 | 0.00 | 86 | 971.2 |
| 20260903025432 | 47 | 232 | 4.0 | 4.0 | 0.00 | 0.11 | 0.00 | 86 | 971.0 |
| 20260903024531 | 48 | 236 | 3.0 | 4.0 | 0.00 | 0.11 | 0.00 | 84 | 971.2 |
| 20260903023631 | 48 | 228 | 3.0 | 5.0 | 0.00 | 0.11 | 0.00 | 84 | 971.2 |
| 20260903021831 | 48 | 184 | 4.0 | 5.0 | 0.00 | 0.11 | 0.00 | 85 | 971.1 |
| 20260903020932 | 48 | 197 | 3.0 | 4.0 | 0.00 | 0.11 | 0.00 | 84 | 971.1 |
| 20260903015131 | 48 | 182 | 4.0 | 5.0 | 0.00 | 0.11 | 0.00 | 82 | 971.3 |
| 20260903013331 | 48 | 182 | 4.0 | 5.0 | 0.00 | 0.11 | 0.00 | 81 | 971.4 |
| 20260903012432 | 49 | 184 | 4.0 | 4.0 | 0.00 | 0.11 | 0.00 | 80 | 971.3 |
| 20260903011531 | 49 | 182 | 4.0 | 5.0 | 0.00 | 0.11 | 0.00 | 81 | 971.4 |
| 20260903010631 | 48 | 181 | 4.0 | 4.0 | 0.00 | 0.11 | 0.00 | 82 | 971.6 |
| 20260903005731 | 48 | 179 | 5.0 | 6.0 | 0.00 | 0.11 | 0.00 | 82 | 971.4 |
| 20260903003932 | 49 | 176 | 3.0 | 4.0 | 0.00 | 0.11 | 0.00 | 80 | 971.6 |
| 20260903002131 | 49 | 174 | 3.0 | 4.0 | 0.00 | 0.11 | 0.00 | 79 | 971.7 |
| 20260903001231 | 50 | 181 | 3.0 | 4.0 | 0.00 | 0.11 | 0.00 | 78 | 971.7 |
| 20260903000332 | 51 | 183 | 4.0 | 4.0 | 0.00 | 0.11 | 0.00 | 77 | 971.7 |
| 20260902235431 | 51 | 188 | 3.0 | 4.0 | 0.00 | 0.11 | 0.00 | 77 | 971.6 |
| 20260902233631 | 50 | 178 | 2.0 | 4.0 | 0.00 | 0.11 | 0.00 | 78 | 971.6 |
| 20260902232731 | 51 | 185 | 4.0 | 4.0 | 0.00 | 0.11 | 0.00 | 77 | 971.7 |
| 20260902231831 | 51 | 182 | 4.0 | 4.0 | 0.00 | 0.11 | 0.00 | 79 | 971.7 |
| 20260902230931 | 51 | 181 | 5.0 | 6.0 | 0.00 | 0.11 | 0.00 | 79 | 971.7 |
| 20260902230032 | 51 | 188 | 4.0 | 5.0 | 0.00 | 0.11 | 0.00 | 79 | 971.7 |
| 20260902224231 | 51 | 184 | 5.0 | 6.0 | 0.00 | 0.11 | 0.00 | 78 | 971.8 |
| 20260902222432 | 51 | 189 | 5.0 | 7.0 | 0.00 | 0.11 | 0.00 | 78 | 971.6 |
| 20260902221531 | 51 | 185 | 4.0 | 5.0 | 0.00 | 0.11 | 0.00 | 77 | 971.7 |
| 20260902220631 | 52 | 175 | 5.0 | 5.0 | 0.00 | 0.11 | 0.00 | 76 | 971.8 |
| 20260902215731 | 52 | 177 | 6.0 | 8.0 | 0.00 | 0.11 | 0.11 | 75 | 971.7 |
| 20260902214831 | 52 | 201 | 5.0 | 8.0 | 0.00 | 0.11 | 0.11 | 75 | 971.6 |
| 20260902213933 | 53 | 188 | 5.0 | 8.0 | 0.00 | 0.11 | 0.11 | 74 | 971.7 |
| 20260902213032 | 53 | 189 | 5.0 | 6.0 | 0.00 | 0.11 | 0.11 | 73 | 971.8 |
| 20260902212132 | 53 | 183 | 4.0 | 5.0 | 0.00 | 0.11 | 0.11 | 72 | 971.8 |
| 20260902210331 | 54 | 191 | 4.0 | 4.0 | 0.00 | 0.11 | 0.11 | 69 | 971.9 |
| 20260902205432 | 54 | 197 | 5.0 | 7.0 | 0.00 | 0.11 | 0.11 | 69 | 971.8 |
| 20260902203631 | 54 | 197 | 5.0 | 6.0 | 0.00 | 0.11 | 0.11 | 68 | 971.7 |
| 20260902202732 | 54 | 181 | 4.0 | 8.0 | 0.00 | 0.11 | 0.11 | 67 | 971.9 |
| 20260902201831 | 54 | 209 | 4.0 | 7.0 | 0.00 | 0.11 | 0.11 | 67 | 971.8 |
| 20260902200932 | 55 | 186 | 4.0 | 6.0 | 0.00 | 0.11 | 0.11 | 67 | 971.9 |
| 20260902195131 | 55 | 181 | 4.0 | 4.0 | 0.00 | 0.11 | 0.11 | 66 | 971.9 |
| 20260902194231 | 55 | 191 | 3.0 | 5.0 | 0.00 | 0.11 | 0.11 | 65 | 971.8 |
| 20260902193331 | 56 | 191 | 5.0 | 7.0 | 0.00 | 0.11 | 0.11 | 64 | 971.9 |
| 20260902192432 | 56 | 185 | 4.0 | 5.0 | 0.00 | 0.11 | 0.11 | 63 | 971.9 |
| 20260902191532 | 56 | 176 | 3.0 | 4.0 | 0.00 | 0.11 | 0.11 | 63 | 971.7 |
| 20260902190631 | 57 | 198 | 2.0 | 4.0 | 0.00 | 0.11 | 0.11 | 63 | 971.8 |
| 20260902184832 | 58 | 229 | 4.0 | 7.0 | 0.00 | 0.11 | 0.11 | 61 | 971.8 |
| 20260902183931 | 58 | 225 | 5.0 | 8.0 | 0.00 | 0.11 | 0.11 | 60 | 971.8 |
| 20260902183031 | 59 | 237 | 5.0 | 8.0 | 0.00 | 0.11 | 0.11 | 58 | 971.8 |
| 20260902181232 | 60 | 228 | 6.0 | 8.0 | 0.00 | 0.11 | 0.11 | 57 | 971.9 |
| 20260902180332 | 61 | 217 | 5.0 | 8.0 | 0.00 | 0.11 | 0.11 | 54 | 971.6 |